Home > Weather > Ulaanbaatar > Past weeks

Flag for Mongolia Weather for the Past 2 Weeks in Ulaanbaatar, Mongolia

Now
-18 °F

Clear.


Feels Like: -18 °F
Forecast: -13 / 6 °F
Wind: 1 mph from North

Location: Ulan-Bator

Current Time: Feb 13, 2016 at 10:06:20 PM

Latest Report: Feb 13, 2016 at 9:30 PM


Visibility: 10 mi

Pressure: 30.48 "Hg (25.44 "Hg at 1298m altitude)

Humidity: 69%

Dew point: -26 °F

Location of UlaanbaatarLocation

Historic Weather in Ulaanbaatar — Graph

°F

Ulaanbaatar Temperature Yesterday

Maximum temperature yesterday: 3 °F (at 1:00 PM)
Minimum temperature yesterday: -20 °F (at 10:30 PM)
Average temperature yesterday: -5 °F

High & Low Weather Summary for the Past Weeks

 TemperatureHumidityPressure
High27 °F (Feb 10, 4:30 PM)92% (Feb 11, 4:00 AM)30.54 "Hg (Feb 11, 4:00 AM)
Low-33 °F (Jan 30, 1:00 AM)50% (Feb 1, 2:30 PM)29.53 "Hg (Feb 10, 10:30 PM)
Average-7 °F71%30.18 "Hg
* Reported Jan 29 9:00 PM — Feb 13 9:00 PM, Ulaanbaatar, Weather by CustomWeather, © 2016

Note: Actual official high and low records may vary slightly from our data, if they occured in-between our weather recording intervals... More about our weather records

Advertising

Ulaanbaatar Weather History for the Previous 24 Hours

 ConditionsComfort  
Time TempWeatherWind HumidityBarometerVisibility
9:00 PM
Sat, Feb 13
-15 °FClear.1 mph76%30.48 "Hg10 mi
8:30 PM-18 °FClear.No wind69%30.48 "Hg10 mi
8:00 PM-9 °FClear.No wind70%30.48 "Hg10 mi
7:30 PM-8 °FClear.3 mph70%30.48 "Hg10 mi
7:00 PM-9 °FSunny.1 mph70%30.48 "Hg10 mi
6:30 PM-6 °FSunny.3 mph64%30.45 "Hg10 mi
6:00 PM-4 °FPassing clouds.3 mph65%30.45 "HgN/A
5:30 PM-2 °FPassing clouds.8 mph65%30.45 "HgN/A
5:00 PM0 °FPassing clouds.6 mph65%30.45 "HgN/A
4:30 PM0 °FPassing clouds.10 mph71%30.45 "HgN/A
4:00 PM1 °FPassing clouds.13 mph65%30.45 "HgN/A
3:30 PM0 °FSunny.13 mph71%30.45 "Hg10 mi
3:00 PM-2 °FSunny.10 mph71%30.45 "Hg10 mi
2:30 PM-2 °FSunny.8 mph71%30.45 "Hg10 mi
2:00 PM-2 °FSunny.10 mph71%30.45 "Hg10 mi
1:30 PM-2 °FSunny.8 mph71%30.45 "Hg10 mi
1:00 PM-4 °FSunny.3 mph71%30.48 "Hg10 mi
12:30 PM0 °FSunny.No wind60%30.48 "Hg10 mi
12:00 PM-8 °FSunny.No wind70%30.48 "Hg10 mi
11:30 AM-8 °FSunny.3 mph70%30.48 "Hg10 mi
10:30 AM-15 °FClear.No wind69%30.51 "Hg5 mi
10:00 AM-18 °FClear.No wind69%30.51 "Hg5 mi
9:30 AM-20 °FSunny.No wind62%30.51 "Hg10 mi
9:00 AM-26 °FClear.No wind75%30.48 "Hg10 mi
8:30 AM-26 °FClear.1 mph67%30.48 "Hg10 mi
8:00 AM-26 °FClear.1 mph75%30.48 "Hg10 mi
7:30 AM-29 °FClear.1 mph60%30.48 "Hg10 mi
7:00 AM-22 °FClear.1 mph68%30.45 "Hg10 mi
6:30 AM-24 °FClear.No wind68%30.45 "Hg10 mi
5:30 AM-24 °FClear.1 mph61%30.45 "Hg10 mi
5:00 AM-24 °FClear.3 mph68%30.45 "Hg10 mi
4:00 AM-26 °FClear.3 mph75%30.45 "Hg10 mi
3:00 AM-22 °FClear.No wind68%30.45 "Hg10 mi
2:00 AM-24 °FClear.3 mph75%30.45 "Hg10 mi
1:00 AM-22 °FClear.3 mph68%30.45 "Hg10 mi
12:00 AM-24 °FClear.3 mph68%30.45 "Hg10 mi
11:30 PM
Fri, Feb 12
-18 °FClear.No wind56%30.45 "Hg10 mi
11:00 PM-13 °FClear.1 mph69%30.45 "Hg10 mi
10:30 PM-20 °FClear.1 mph68%30.45 "Hg10 mi
10:00 PM-18 °FClear.3 mph69%30.45 "Hg10 mi
Weather by CustomWeather, © 2016

See weather overviewHow to use our weather pages